• In Belgien
  • Länderverzeichnis
  • Für 7 Tage
  • Wassertemperatur
  • Satellitenkarten
  • Wetterkarte
  • Widgets
  • user-avatar
    Anmelden

    Stündliche Wetter Knokke-Heist

    Heute, 23 Oktober, Dienstag

    Zeit Temperatur Niederschläge Wind Luftdruck Luftfeuchtigkeit
    00:00 +8°C° 0 mm 6 m/S 774 mmHg 73%
    01:00 +8°C° 0 mm 6 m/S 774 mmHg 73%
    02:00 +8°C° 0 mm 7 m/S 773 mmHg 73%
    03:00 +7°C° 0 mm 8 m/S 773 mmHg 74%
    04:00 +7°C° 0 mm 8 m/S 772 mmHg 75%
    05:00 +9°C° 0 mm 8 m/S 772 mmHg 76%
    06:00 +7°C° 0 mm 8 m/S 771 mmHg 76%
    07:00 +8°C° 0 mm 9 m/S 771 mmHg 73%
    08:00 +11°C° 0 mm 9 m/S 770 mmHg 71%
    09:00 +12°C° 0 mm 9 m/S 770 mmHg 68%
    10:00 +12°C° 0 mm 9 m/S 770 mmHg 67%
    11:00 +13°C° 0 mm 9 m/S 770 mmHg 65%
    12:00 +15°C° 0 mm 9 m/S 770 mmHg 63%
    13:00 +15°C° 0 mm 8 m/S 769 mmHg 64%
    14:00 +15°C° 0 mm 8 m/S 769 mmHg 65%
    15:00 +15°C° 0 mm 8 m/S 769 mmHg 66%
    16:00 +13°C° 0 mm 8 m/S 769 mmHg 69%
    17:00 +14°C° 0 mm 7 m/S 769 mmHg 73%
    18:00 +12°C° 0 mm 7 m/S 769 mmHg 76%
    19:00 +13°C° 0 mm 8 m/S 769 mmHg 80%
    20:00 +13°C° 0 mm 8 m/S 769 mmHg 83%
    21:00 +13°C° 0 mm 8 m/S 769 mmHg 86%
    22:00 +13°C° 0 mm 8 m/S 769 mmHg 87%
    23:00 +13°C° 0 mm 8 m/S 769 mmHg 88%

    Morgen, 24 Oktober, Mittwoch

    Zeit Temperatur Niederschläge Wind Luftdruck Luftfeuchtigkeit
    00:00 +13°C° 0 mm 8 m/S 769 mmHg 89%
    01:00 +13°C° 0 mm 8 m/S 769 mmHg 90%
    02:00 +13°C° 0 mm 8 m/S 769 mmHg 90%
    03:00 +13°C° 0 mm 8 m/S 769 mmHg 90%
    04:00 +13°C° 0 mm 8 m/S 769 mmHg 88%
    05:00 +14°C° 0 mm 7 m/S 769 mmHg 87%
    06:00 +15°C° 0 mm 7 m/S 769 mmHg 85%
    07:00 +15°C° 0 mm 7 m/S 769 mmHg 84%
    08:00 +15°C° 0 mm 7 m/S 769 mmHg 83%
    09:00 +15°C° 0 mm 6 m/S 769 mmHg 81%
    10:00 +15°C° 0 mm 6 m/S 769 mmHg 80%
    11:00 +16°C° 0 mm 6 m/S 770 mmHg 79%
    12:00 +16°C° 0 mm 5 m/S 770 mmHg 79%
    13:00 +16°C° 0 mm 5 m/S 769 mmHg 79%
    14:00 +17°C° 0 mm 4 m/S 769 mmHg 79%
    15:00 +15°C° 0 mm 4 m/S 769 mmHg 80%
    16:00 +15°C° 0 mm 4 m/S 769 mmHg 83%
    17:00 +14°C° 0 mm 3 m/S 769 mmHg 86%
    18:00 +13°C° 0 mm 3 m/S 769 mmHg 89%
    19:00 +13°C° 0 mm 4 m/S 769 mmHg 90%
    20:00 +13°C° 0 mm 4 m/S 769 mmHg 90%
    21:00 +12°C° 0 mm 5 m/S 768 mmHg 90%
    22:00 +12°C° 0 mm 5 m/S 768 mmHg 90%
    23:00 +12°C° 0 mm 5 m/S 768 mmHg 89%

    übermorgen, 25 Oktober, Donnerstag

    Zeit Temperatur Niederschläge Wind Luftdruck Luftfeuchtigkeit
    00:00 +12°C° 0 mm 5 m/S 768 mmHg 89%
    01:00 +12°C° 0 mm 5 m/S 767 mmHg 89%
    02:00 +10°C° 0 mm 5 m/S 767 mmHg 89%
    03:00 +11°C° 0 mm 4 m/S 766 mmHg 90%
    04:00 +11°C° 0 mm 4 m/S 766 mmHg 89%
    05:00 +11°C° 0 mm 4 m/S 766 mmHg 88%
    06:00 +11°C° 0 mm 4 m/S 766 mmHg 87%
    07:00 +10°C° 0 mm 5 m/S 766 mmHg 84%
    08:00 +12°C° 0 mm 5 m/S 766 mmHg 81%
    09:00 +12°C° 0 mm 5 m/S 766 mmHg 78%
    10:00 +12°C° 0 mm 5 m/S 765 mmHg 77%
    11:00 +12°C° 0 mm 4 m/S 765 mmHg 76%
    12:00 +12°C° 0 mm 4 m/S 765 mmHg 75%
    13:00 +12°C° 0 mm 4 m/S 764 mmHg 75%
    14:00 +12°C° 0 mm 4 m/S 764 mmHg 75%
    15:00 +12°C° 0 mm 4 m/S 764 mmHg 76%
    16:00 +12°C° 0 mm 4 m/S 763 mmHg 76%
    17:00 +12°C° 0 mm 4 m/S 763 mmHg 77%
    18:00 +12°C° 0 mm 3 m/S 763 mmHg 77%
    19:00 +12°C° 0 mm 3 m/S 763 mmHg 78%
    20:00 +12°C° 0 mm 4 m/S 762 mmHg 78%
    21:00 +11°C° 0 mm 4 m/S 762 mmHg 78%
    22:00 +11°C° 0 mm 4 m/S 762 mmHg 80%
    23:00 +10°C° 0 mm 5 m/S 761 mmHg 81%

    26 Oktober, Freitag

    Zeit Temperatur Niederschläge Wind Luftdruck Luftfeuchtigkeit
    00:00 +9°C° 0 mm 6 m/S 761 mmHg 83%
    01:00 +9°C° 0 mm 6 m/S 760 mmHg 84%
    02:00 +9°C° 0 mm 7 m/S 759 mmHg 84%
    03:00 +8°C° 0 mm 7 m/S 759 mmHg 85%
    04:00 +9°C° 0 mm 7 m/S 758 mmHg 84%
    05:00 +9°C° 0 mm 7 m/S 758 mmHg 83%
    06:00 +9°C° 0 mm 8 m/S 757 mmHg 82%
    07:00 +8°C° 0.2 mm 9 m/S 757 mmHg 81%
    08:00 +10°C° 0.2 mm 9 m/S 757 mmHg 79%
    09:00 +9°C° 0.2 mm 10 m/S 757 mmHg 77%
    10:00 +9°C° 0.1 mm 10 m/S 757 mmHg 70%
    11:00 +9°C° 0.1 mm 10 m/S 757 mmHg 63%
    12:00 +11°C° 0.1 mm 10 m/S 758 mmHg 56%
    13:00 +9°C° 0 mm 10 m/S 758 mmHg 57%
    14:00 +9°C° 0 mm 10 m/S 758 mmHg 57%
    15:00 +10°C° 0 mm 9 m/S 758 mmHg 57%
    16:00 +8°C° 0 mm 9 m/S 758 mmHg 57%
    17:00 +7°C° 0 mm 9 m/S 758 mmHg 58%
    18:00 +7°C° 0 mm 8 m/S 759 mmHg 59%
    19:00 +6°C° 0.2 mm 8 m/S 759 mmHg 62%
    20:00 +6°C° 0.2 mm 8 m/S 759 mmHg 65%
    21:00 +6°C° 0.2 mm 8 m/S 759 mmHg 68%
    22:00 +5°C° 0.3 mm 8 m/S 759 mmHg 70%
    23:00 +5°C° 0.3 mm 8 m/S 759 mmHg 72%

    27 Oktober, Samstag

    Zeit Temperatur Niederschläge Wind Luftdruck Luftfeuchtigkeit
    00:00 +5°C° 0.3 mm 8 m/S 759 mmHg 73%
    01:00 +5°C° 0.4 mm 7 m/S 759 mmHg 74%
    02:00 +5°C° 0.4 mm 7 m/S 759 mmHg 75%
    03:00 +5°C° 0.4 mm 7 m/S 759 mmHg 77%
    04:00 +5°C° 0.9 mm 8 m/S 759 mmHg 78%
    05:00 +5°C° 0.9 mm 8 m/S 759 mmHg 79%
    06:00 +5°C° 0.9 mm 8 m/S 759 mmHg 80%
    07:00 +5°C° 0.9 mm 8 m/S 759 mmHg 78%
    08:00 +5°C° 0.9 mm 8 m/S 759 mmHg 75%
    09:00 +6°C° 0.9 mm 8 m/S 759 mmHg 72%
    10:00 +6°C° 0.7 mm 8 m/S 759 mmHg 71%
    11:00 +6°C° 0.7 mm 8 m/S 759 mmHg 69%
    12:00 +6°C° 0.7 mm 8 m/S 759 mmHg 68%
    13:00 +6°C° 0.5 mm 8 m/S 759 mmHg 68%
    14:00 +6°C° 0.5 mm 7 m/S 759 mmHg 67%
    15:00 +6°C° 0.5 mm 7 m/S 759 mmHg 67%
    16:00 +5°C° 0.2 mm 7 m/S 759 mmHg 69%
    17:00 +4°C° 0.2 mm 6 m/S 759 mmHg 71%
    18:00 +4°C° 0.2 mm 6 m/S 760 mmHg 73%
    19:00 +3°C° 0.2 mm 6 m/S 760 mmHg 73%
    20:00 +3°C° 0.2 mm 6 m/S 760 mmHg 73%
    21:00 +3°C° 0.2 mm 5 m/S 760 mmHg 73%
    22:00 +3°C° 0.5 mm 5 m/S 760 mmHg 74%
    23:00 +3°C° 0.5 mm 6 m/S 760 mmHg 75%

    28 Oktober, Sonntag

    Zeit Temperatur Niederschläge Wind Luftdruck Luftfeuchtigkeit
    00:00 +3°C° 0.5 mm 6 m/S 760 mmHg 76%
    01:00 +3°C° 0.6 mm 6 m/S 760 mmHg 78%
    02:00 +3°C° 0.6 mm 5 m/S 760 mmHg 79%
    03:00 +3°C° 0.6 mm 5 m/S 759 mmHg 80%
    04:00 +3°C° 0.6 mm 5 m/S 760 mmHg 80%
    05:00 +3°C° 0.6 mm 5 m/S 760 mmHg 80%
    06:00 +3°C° 0.6 mm 5 m/S 760 mmHg 81%
    07:00 +5°C° 0.3 mm 5 m/S 760 mmHg 76%
    08:00 +6°C° 0.3 mm 5 m/S 760 mmHg 71%
    09:00 +8°C° 0.3 mm 6 m/S 760 mmHg 66%
    10:00 +8°C° 0.2 mm 6 m/S 760 mmHg 62%
    11:00 +9°C° 0.2 mm 7 m/S 760 mmHg 59%
    12:00 +9°C° 0.2 mm 7 m/S 760 mmHg 56%
    13:00 +9°C° 0.3 mm 7 m/S 760 mmHg 57%
    14:00 +9°C° 0.3 mm 7 m/S 760 mmHg 59%
    15:00 +9°C° 0.3 mm 7 m/S 760 mmHg 61%
    16:00 +6°C° 0.3 mm 7 m/S 760 mmHg 64%
    17:00 +5°C° 0.3 mm 7 m/S 760 mmHg 68%
    18:00 +4°C° 0.3 mm 7 m/S 761 mmHg 71%
    19:00 +4°C° 0.2 mm 6 m/S 761 mmHg 72%
    20:00 +3°C° 0.2 mm 6 m/S 761 mmHg 73%
    21:00 +3°C° 0.2 mm 6 m/S 761 mmHg 73%
    22:00 +2°C° 0.1 mm 6 m/S 761 mmHg 75%
    23:00 +2°C° 0.1 mm 6 m/S 761 mmHg 77%

    29 Oktober, Montag

    Zeit Temperatur Niederschläge Wind Luftdruck Luftfeuchtigkeit
    00:00 +2°C° 0.1 mm 5 m/S 761 mmHg 79%
    01:00 +1°C° 0 mm 6 m/S 761 mmHg 79%
    02:00 +1°C° 0 mm 6 m/S 761 mmHg 80%
    03:00 +1°C° 0 mm 6 m/S 761 mmHg 80%
    04:00 +1°C° 0 mm 6 m/S 761 mmHg 81%
    05:00 -1°C° 0 mm 7 m/S 761 mmHg 81%
    06:00 -1°C° 0 mm 7 m/S 761 mmHg 82%
    07:00 0°C° 0 mm 7 m/S 761 mmHg 78%
    08:00 +2°C° 0 mm 7 m/S 761 mmHg 73%
    09:00 +3°C° 0 mm 7 m/S 761 mmHg 69%
    10:00 +4°C° 0 mm 7 m/S 760 mmHg 63%
    11:00 +5°C° 0 mm 7 m/S 760 mmHg 58%
    12:00 +7°C° 0 mm 6 m/S 759 mmHg 52%
    13:00 +7°C° 0 mm 6 m/S 759 mmHg 52%
    14:00 +7°C° 0 mm 6 m/S 759 mmHg 52%
    15:00 +7°C° 0 mm 6 m/S 758 mmHg 52%
    16:00 +5°C° 0 mm 6 m/S 758 mmHg 57%
    17:00 +4°C° 0 mm 6 m/S 758 mmHg 61%
    18:00 +3°C° 0 mm 5 m/S 758 mmHg 66%
    19:00 +2°C° 0.1 mm 5 m/S 757 mmHg 70%
    20:00 +2°C° 0.1 mm 5 m/S 757 mmHg 73%
    21:00 +2°C° 0.1 mm 5 m/S 757 mmHg 77%
    22:00 +2°C° 0.1 mm 5 m/S 756 mmHg 78%
    23:00 +1°C° 0.1 mm 5 m/S 756 mmHg 78%
    Mehr zeigen